Wind_Speed
23 22 22 21 20 20 20 20 21 21 21 20 19 18 18 17 16 17 16 16 14 13 14 15 14 13 11 11 12 11 11 10 9 9 9 9 8 8 8 8 8 10 13
25 25 24 24 24 24 24 24 24 24 24 23 22 21 20 20 19 20 19 19 18 17 17 18 17 17 17 16 15 15 15 15 14 14 13 12 11 11 11 11 11 11 12
25 25 25 26 26 27 28 27 28 27 27 26 25 24 23 23 22 23 22 22 21 20 20 21 21 21 22 21 20 19 18 17 17 17 17 16 14 13 14 15 15 15 15
23 23 24 25 27 28 29 29 29 29 29 28 27 26 25 26 25 24 25 25 25 24 23 23 23 24 25 25 25 24 22 21 20 20 19 18 16 16 16 17 18 19 18
21 22 23 25 27 28 29 30 29 29 29 29 29 29 28 28 28 27 27 27 27 26 25 26 27 27 28 28 28 27 26 25 24 22 21 20 19 19 19 19 20 20 21
22 23 24 25 27 28 29 30 30 31 31 31 31 31 31 30 30 30 30 30 30 29 29 29 30 31 31 32 31 30 29 28 27 26 24 23 22 21 21 21 20 20 20
24 25 26 26 28 29 30 31 32 32 33 33 33 33 33 33 33 32 32 32 32 32 31 31 31 33 34 33 34 32 32 30 29 27 26 25 25 23 22 21 20 20 20
26 27 29 30 31 32 33 35 35 35 36 37 37 37 36 37 37 36 35 35 34 34 33 33 33 33 34 34 35 35 34 31 29 27 27 27 26 25 23 22 20 19 19
30 32 34 35 36 37 38 38 38 39 40 40 40 40 40 40 40 39 39 38 37 37 37 36 36 35 35 35 35 35 35 34 31 29 29 29 29 29 27 25 23 20 20
30 32 33 36 37 38 38 39 39 39 40 39 39 40 41 42 42 42 42 42 40 40 40 40 39 39 38 37 36 36 37 35 33 32 32 32 33 32 31 28 26 24 22
30 31 32 34 36 37 37 38 38 38 39 39 40 40 40 41 42 43 44 44 44 43 43 42 42 42 41 40 39 39 38 38 37 35 34 34 33 34 32 29 28 26 24
33 33 34 36 38 39 41 41 41 41 40 40 41 41 42 42 43 44 45 46 46 45 44 44 44 43 42 42 41 40 40 39 38 37 35 33 32 33 32 30 30 30 27
32 33 34 36 38 40 42 44 46 46 46 46 45 45 45 45 45 45 45 46 46 46 47 46 43 42 42 41 41 42 42 41 40 39 37 35 33 34 32 30 32 32 30
36 37 37 38 39 40 42 43 45 47 49 50 51 50 50 49 49 48 47 47 47 47 46 46 45 43 43 43 44 44 44 43 42 41 40 38 37 36 34 31 31 33 31
42 43 44 45 46 46 47 47 47 47 49 50 52 53 53 53 53 53 52 51 50 49 49 47 47 48 47 46 45 46 45 43 43 43 42 41 39 38 37 33 31 32 33
44 46 48 50 52 54 54 54 55 54 54 54 54 55 56 56 56 56 57 56 54 53 51 51 51 50 52 51 50 49 48 46 45 44 43 42 41 40 39 37 34 34 34
51 52 53 55 56 57 57 58 59 60 60 59 58 59 59 59 59 58 57 57 57 56 55 54 54 53 53 54 53 53 52 51 49 48 47 45 44 43 43 41 39 37 37
56 57 59 61 63 63 63 63 64 65 66 65 62 61 61 62 62 62 60 59 58 57 57 56 56 56 55 55 55 54 54 53 53 52 51 50 49 48 47 45 44 42 41
58 60 62 65 67 68 68 70 70 68 67 67 66 65 64 63 64 64 64 65 65 63 61 59 57 57 57 57 58 57 56 54 54 54 53 52 52 51 50 48 47 46 44
61 62 65 68 70 73 74 74 74 72 70 69 69 69 67 66 66 66 65 65 66 66 65 65 62 60 59 58 60 60 60 59 58 56 55 54 53 52 50 49 47 45 43
72 72 73 75 77 77 77 78 78 79 78 76 75 75 76 76 75 75 73 72 71 70 68 67 67 66 63 61 62 63 64 63 62 61 59 58 56 54 53 52 50 48 47
84 84 84 84 84 81 80 81 82 83 84 84 82 80 80 82 82 82 82 80 78 77 75 72 70 69 68 65 64 65 67 67 66 64 63 62 60 59 58 57 55 53 51
91 90 87 84 84 84 81 79 80 82 83 85 87 87 86 85 85 86 88 87 84 81 79 77 75 74 72 69 67 66 67 69 69 68 67 66 65 64 63 62 60 59 57
87 83 79 76 73 71 69 68 69 71 74 78 81 83 87 87 87 88 89 90 91 86 82 81 80 78 77 73 70 68 67 68 69 69 70 70 69 69 68 67 65 63 62
74 69 65 63 59 59 60 62 62 60 58 59 61 65 70 73 75 77 82 84 86 85 84 85 86 84 82 80 77 74 72 70 70 68 68 69 70 70 70 70 70 69 66
62 61 58 54 54 55 54 54 51 43 39 36 35 37 43 47 48 51 56 61 66 70 75 79 82 84 84 83 81 79 77 75 72 72 71 69 69 69 69 69 69 70 69
Wind_Direction
240 241 244 247 250 253 258 264 270 276 280 282 284 287 290 291 289 281 272 267 263 257 252 252 252 255 256 251 245 242 245 249 252 253 261 267 271 273 270 262 251 240 232
245 248 249 251 252 254 259 264 269 273 276 277 277 280 282 283 282 276 269 263 258 253 248 248 250 254 256 256 253 249 251 252 254 256 261 263 264 265 268 266 260 251 240
248 250 254 257 259 260 263 267 271 273 274 275 276 277 278 278 276 273 267 261 256 253 251 250 250 252 252 252 253 253 254 254 254 256 259 261 264 268 269 264 260 255 249
258 260 261 264 265 266 267 268 270 271 273 274 276 277 277 277 274 270 263 259 254 250 249 252 254 255 255 253 252 252 252 253 253 255 258 259 262 269 270 264 258 253 250
264 266 266 265 265 265 266 267 269 271 272 274 275 275 275 273 271 268 262 257 254 250 249 251 253 256 256 254 254 253 251 251 250 250 254 257 262 267 269 266 260 253 249
275 271 270 270 271 271 271 272 272 272 272 272 272 271 270 269 267 265 261 258 256 254 252 252 252 253 253 253 254 252 252 251 249 249 249 252 258 263 265 265 261 254 248
282 279 277 276 276 275 275 274 274 274 273 273 272 271 270 268 266 264 262 260 260 258 256 254 252 252 251 252 252 252 252 252 251 248 246 248 252 257 262 261 257 253 247
282 280 278 277 276 275 275 275 275 275 274 273 273 271 269 266 264 262 261 260 259 259 258 256 254 251 249 249 250 250 250 249 248 247 247 248 251 255 255 254 252 247 241
279 279 279 279 279 278 275 273 273 273 272 271 270 268 267 265 263 262 260 259 258 257 256 255 254 254 252 249 248 247 247 246 246 245 247 250 252 254 252 247 245 241 237
287 286 285 285 284 281 280 278 276 273 271 270 269 267 265 263 261 260 260 259 257 256 254 253 252 251 251 250 248 245 244 245 246 246 248 250 251 252 250 243 239 236 236
297 294 291 289 288 286 283 280 277 274 272 270 267 266 265 263 262 260 259 259 259 257 255 253 251 250 249 247 245 243 243 244 245 246 247 249 250 249 247 241 236 233 234
301 296 291 287 284 284 283 281 279 276 272 270 268 266 265 263 262 261 260 260 261 260 257 252 248 247 246 247 246 244 244 244 245 244 242 244 245 247 245 239 235 232 230
301 298 293 289 285 282 280 279 279 278 276 274 271 268 267 266 264 263 262 261 261 260 257 254 249 246 244 243 244 244 243 243 242 241 240 239 239 243 246 242 236 230 229
297 294 291 288 285 283 281 278 277 276 275 274 273 271 268 266 265 265 264 263 262 260 259 255 251 247 245 242 241 241 240 240 239 239 239 238 237 240 244 243 239 233 229
300 296 292 287 283 280 278 276 273 271 271 271 271 270 268 267 265 264 263 262 261 259 257 255 254 252 249 246 243 242 241 239 238 238 238 236 235 237 240 240 238 234 230
295 293 291 288 285 283 280 277 274 270 268 266 265 265 265 264 263 262 261 260 260 259 258 256 254 253 253 251 247 244 242 240 237 236 236 234 232 232 234 236 236 235 233
294 291 288 285 282 280 278 276 275 274 272 269 265 263 262 261 261 259 257 256 255 255 255 256 257 254 251 250 248 247 245 243 240 238 236 234 232 231 231 233 234 235 235
291 288 285 285 285 283 280 278 276 274 273 271 268 265 262 260 259 258 257 255 254 254 253 252 253 254 253 251 248 246 246 244 243 241 239 236 235 233 233 233 234 235 236
288 284 282 283 282 280 279 279 278 276 271 268 265 264 263 262 260 259 257 257 256 255 254 252 250 250 251 250 249 247 245 244 244 244 242 239 237 235 234 234 235 236 238
293 287 283 282 281 279 278 277 277 276 273 269 266 264 262 262 262 261 259 257 256 255 254 253 250 249 249 248 247 246 245 245 244 244 243 243 241 238 236 234 233 234 235
300 297 293 289 284 279 275 271 269 267 267 267 267 265 263 263 264 264 263 260 257 255 254 253 252 250 249 249 247 245 244 243 243 243 242 241 241 240 238 237 235 235 236
302 299 294 289 285 280 275 270 266 261 258 258 259 261 263 264 263 263 261 259 257 255 253 253 254 253 251 250 249 247 245 243 242 243 243 242 240 239 238 237 238 238 238
300 298 297 297 297 297 295 289 281 272 263 259 259 259 258 257 258 260 260 258 256 255 255 254 256 256 254 251 249 247 246 244 243 243 242 242 242 241 240 238 238 239 240
303 304 306 308 310 310 308 305 301 293 281 271 265 262 261 261 260 260 260 259 258 258 257 255 256 258 256 254 252 248 247 245 243 242 242 242 242 242 242 242 241 240 241
312 315 316 315 316 316 314 311 307 301 293 283 274 268 264 264 264 263 262 260 259 258 256 254 254 254 254 254 253 252 250 246 244 242 241 242 242 242 243 243 244 243 242
320 322 322 319 317 319 319 317 317 314 305 291 273 266 265 265 264 263 261 260 260 260 259 257 254 253 252 252 251 251 250 249 248 246 243 241 242 243 242 242 243 243 242
Height
5860 5860 5859 5859 5859 5859 5858 5858 5857 5857 5857 5858 5858 5857 5857 5857 5857 5858 5858 5858 5858 5858 5859 5859 5860 5860 5861 5862 5863 5864 5864 5865 5865 5866 5866 5867 5868 5868 5868 5868 5869 5869 5870
5857 5856 5856 5856 5855 5855 5855 5854 5854 5854 5854 5855 5854 5854 5853 5853 5854 5854 5854 5854 5855 5856 5855 5856 5856 5857 5858 5859 5860 5861 5861 5863 5863 5863 5864 5865 5866 5866 5866 5866 5866 5867 5868
5853 5853 5853 5853 5852 5852 5851 5851 5850 5850 5850 5849 5849 5848 5848 5848 5849 5849 5849 5850 5850 5851 5852 5852 5852 5853 5854 5855 5856 5857 5858 5859 5860 5860 5861 5862 5862 5863 5863 5863 5864 5864 5865
5849 5850 5850 5850 5849 5848 5847 5847 5846 5845 5844 5844 5844 5844 5843 5843 5844 5844 5844 5845 5845 5846 5847 5847 5848 5849 5850 5851 5852 5853 5854 5856 5857 5857 5858 5859 5859 5860 5860 5860 5861 5861 5862
5846 5846 5846 5845 5844 5844 5843 5842 5841 5841 5840 5839 5839 5839 5839 5838 5838 5838 5839 5839 5840 5840 5841 5842 5843 5844 5845 5846 5846 5847 5848 5850 5852 5852 5854 5856 5856 5856 5855 5856 5856 5857 5858
5843 5842 5841 5840 5840 5839 5839 5838 5837 5836 5835 5834 5834 5833 5832 5832 5833 5832 5832 5832 5833 5834 5834 5835 5836 5837 5838 5839 5840 5840 5842 5844 5846 5847 5849 5850 5852 5852 5851 5851 5851 5852 5854
5840 5839 5838 5837 5835 5834 5833 5832 5831 5830 5829 5828 5827 5827 5825 5825 5826 5825 5825 5825 5826 5826 5827 5828 5829 5830 5831 5832 5833 5833 5835 5837 5840 5841 5843 5845 5846 5847 5847 5847 5847 5848 5850
5834 5833 5832 5830 5828 5827 5826 5825 5824 5822 5821 5820 5820 5819 5818 5818 5818 5818 5818 5818 5818 5819 5820 5821 5821 5823 5824 5825 5826 5826 5828 5830 5833 5835 5838 5839 5840 5841 5842 5843 5843 5845 5846
5829 5827 5825 5823 5821 5819 5818 5816 5815 5813 5812 5811 5810 5809 5809 5810 5810 5809 5810 5810 5810 5811 5812 5813 5813 5814 5816 5817 5819 5820 5822 5824 5827 5829 5831 5833 5834 5835 5836 5838 5839 5841 5842
5823 5821 5818 5815 5813 5811 5809 5808 5806 5805 5803 5801 5800 5800 5799 5799 5799 5800 5800 5801 5802 5802 5803 5803 5804 5806 5807 5809 5811 5814 5816 5817 5820 5823 5824 5826 5828 5829 5830 5832 5834 5836 5838
5817 5815 5812 5808 5805 5802 5800 5798 5796 5795 5794 5792 5791 5790 5789 5789 5789 5790 5791 5791 5792 5793 5794 5794 5795 5796 5798 5800 5802 5805 5807 5809 5812 5815 5818 5819 5821 5822 5823 5825 5828 5830 5833
5811 5809 5806 5802 5799 5795 5793 5790 5788 5786 5785 5783 5782 5781 5780 5779 5779 5780 5781 5781 5781 5782 5783 5783 5784 5785 5788 5791 5793 5796 5798 5801 5803 5806 5810 5812 5813 5814 5816 5819 5821 5824 5827
5804 5801 5797 5793 5790 5787 5784 5781 5778 5776 5774 5772 5771 5771 5770 5770 5770 5770 5770 5770 5771 5771 5771 5773 5774 5776 5779 5781 5784 5787 5789 5792 5795 5798 5801 5804 5806 5807 5809 5812 5814 5818 5821
5795 5791 5788 5784 5780 5776 5773 5770 5768 5765 5763 5761 5759 5758 5758 5758 5757 5758 5759 5760 5761 5761 5761 5763 5765 5767 5769 5772 5774 5776 5779 5782 5785 5788 5792 5795 5797 5799 5802 5805 5807 5811 5814
5788 5783 5779 5774 5770 5765 5761 5758 5755 5753 5750 5748 5747 5746 5745 5745 5744 5745 5745 5746 5747 5749 5751 5752 5755 5757 5759 5761 5764 5766 5769 5773 5776 5779 5782 5785 5789 5791 5794 5797 5800 5803 5807
5778 5773 5768 5763 5758 5753 5749 5745 5741 5738 5736 5734 5732 5731 5730 5730 5730 5731 5732 5733 5733 5735 5738 5740 5743 5746 5748 5750 5753 5755 5758 5761 5765 5769 5772 5776 5779 5782 5786 5788 5792 5795 5799
5766 5759 5754 5748 5743 5738 5734 5730 5726 5722 5720 5717 5716 5715 5714 5713 5714 5715 5716 5718 5720 5721 5724 5727 5729 5732 5734 5737 5741 5743 5747 5750 5754 5757 5762 5766 5769 5773 5776 5779 5783 5787 5791
5752 5745 5739 5733 5728 5724 5719 5715 5711 5706 5704 5701 5698 5697 5696 5696 5696 5697 5699 5701 5704 5707 5709 5711 5714 5717 5720 5723 5726 5730 5734 5738 5742 5746 5751 5755 5759 5763 5766 5769 5773 5777 5781
5739 5733 5725 5717 5711 5707 5702 5698 5694 5690 5686 5683 5680 5678 5677 5678 5678 5679 5680 5682 5686 5689 5693 5695 5699 5701 5705 5708 5711 5715 5719 5724 5729 5734 5738 5743 5747 5751 5755 5759 5763 5767 5772
5723 5715 5708 5700 5693 5687 5682 5678 5673 5669 5666 5663 5660 5659 5659 5658 5658 5660 5662 5664 5666 5670 5674 5677 5680 5684 5688 5692 5695 5700 5704 5708 5713 5719 5724 5729 5734 5738 5743 5747 5751 5756 5761
5703 5694 5685 5678 5668 5660 5655 5650 5647 5645 5643 5641 5639 5637 5636 5637 5637 5639 5642 5645 5647 5651 5655 5659 5661 5665 5671 5674 5678 5684 5688 5692 5698 5704 5709 5714 5720 5725 5729 5734 5739 5744 5749
5682 5670 5659 5648 5639 5630 5624 5619 5615 5613 5612 5612 5612 5612 5611 5612 5613 5616 5619 5623 5626 5629 5634 5639 5642 5646 5652 5657 5661 5665 5670 5677 5683 5687 5692 5698 5704 5710 5716 5721 5726 5731 5737
5657 5644 5630 5617 5607 5599 5592 5587 5586 5583 5582 5584 5585 5586 5586 5587 5588 5590 5594 5600 5604 5608 5613 5617 5621 5625 5631 5639 5643 5646 5652 5660 5665 5671 5676 5682 5688 5694 5701 5707 5713 5718 5724
5631 5619 5607 5596 5585 5575 5567 5559 5553 5548 5548 5550 5554 5559 5560 5560 5563 5567 5571 5576 5581 5586 5592 5596 5600 5604 5610 5618 5623 5628 5633 5640 5646 5653 5659 5665 5671 5677 5684 5691 5698 5704 5710
5612 5601 5592 5583 5574 5563 5552 5541 5533 5524 5518 5516 5520 5527 5533 5537 5540 5543 5547 5551 5556 5561 5567 5571 5576 5583 5589 5595 5602 5608 5614 5620 5626 5634 5641 5647 5653 5660 5667 5674 5681 5688 5694
5601 5591 5581 5572 5564 5554 5542 5530 5519 5509 5503 5500 5500 5504 5510 5515 5518 5520 5522 5526 5531 5535 5540 5545 5551 5558 5565 5571 5578 5585 5592 5600 5608 5613 5621 5628 5634 5641 5648 5656 5663 5671 5677